Location: Newark
(42.8481°N, 0.4872°E)
Time: 00:10:42
(UTC+00:00)

Transit 2A - Pass Details

Date: 02 November 2020
Orbit: 595 x 963 km, 66.7° (Epoch: 03 December)

Event Time Altitude Azimuth Distance (km) Brightness Sun altitude
Rises 00:24:32 0° 224° (SW) 3,621 - -60.5°
Reaches altitude 10° 00:27:09 10° 229° (SW) 2,691 - -60.3°
Maximum altitude 00:33:22 54° 306° (NW) 1,152 - -59.9°
Drops below altitude 10° 00:39:29 10° 23° (NNE) 2,640 - -59.4°
Sets 00:42:02 0° 28° (NNE) 3,549 - -59.1°
